GUNLAK-WX Weather Reports


time (UTC)temp
C
wind
direction
speed
KPH
gust
KPH
rain 1hr
cm
rain 24hr
cm
rain mn
cm
humidity
%
barometer
mb
20260503044613 2 177 6.4 0.0 0.00 0.00 0.00 73 988.5
20260503043133 2 174 6.4 0.0 0.00 0.00 0.00 73 988.0
20260503041614 2 167 4.8 0.0 0.00 0.00 0.00 73 988.0
20260503040147 2 177 6.4 0.0 0.00 0.00 0.00 73 988.0
20260503034614 2 180 6.4 0.0 0.00 0.00 0.00 69 989.2
20260503033135 2 183 6.4 0.0 0.00 0.00 0.00 71 989.3
20260503031614 3 180 6.4 0.0 0.00 0.00 0.00 71 989.3
20260503030146 3 183 6.4 0.0 0.00 0.00 0.00 71 989.3
20260503024614 3 171 6.4 0.0 0.00 0.00 0.00 67 990.0
20260503023133 3 177 6.4 0.0 0.00 0.00 0.00 72 989.8
20260503021614 3 202 6.4 0.0 0.00 0.00 0.00 72 989.7
20260503020143 3 209 6.4 0.0 0.00 0.00 0.00 72 989.7
20260503014614 4 223 6.4 0.0 0.00 0.00 0.00 62 989.2
20260503013132 4 234 6.4 0.0 0.00 0.00 0.00 62 989.2
20260503011614 5 234 6.4 0.0 0.00 0.00 0.00 62 989.2
20260503010144 5 242 6.4 0.0 0.00 0.00 0.00 62 989.2
20260503004613 5 246 6.4 0.0 0.00 0.00 0.00 47 990.0
20260503003127 6 241 6.4 0.0 0.00 0.00 0.00 48 990.1
20260503001614 6 250 4.8 0.0 0.00 0.00 0.00 48 990.1
20260503000149 7 266 4.8 0.0 0.00 0.00 0.00 48 990.1
20260502234616 7 283 6.4 0.0 0.00 0.00 0.00 38 990.1
20260502233127 7 285 9.7 0.0 0.00 0.00 0.00 39 990.1
20260502231615 7 287 9.7 0.0 0.00 0.00 0.00 39 990.1
20260502230142 8 285 11.3 0.0 0.00 0.00 0.00 39 990.1
20260502224615 8 285 12.9 0.0 0.00 0.00 0.00 39 990.4
20260502223133 8 285 14.5 0.0 0.00 0.00 0.00 38 991.2
20260502221615 8 284 14.5 0.0 0.00 0.00 0.00 38 991.2
20260502220142 8 284 16.1 0.0 0.00 0.00 0.00 38 991.2
20260502214615 8 285 16.1 0.0 0.00 0.00 0.00 40 991.2
20260502213133 8 282 14.5 0.0 0.00 0.00 0.00 41 990.8
20260502211615 8 278 14.5 0.0 0.00 0.00 0.00 41 990.8
20260502210144 8 275 14.5 0.0 0.00 0.00 0.00 41 990.8
20260502204614 8 275 16.1 0.0 0.00 0.00 0.00 37 991.3
20260502203133 8 275 14.5 0.0 0.00 0.00 0.00 37 991.8
20260502201615 8 279 14.5 0.0 0.00 0.00 0.00 37 991.7
20260502200141 8 281 14.5 0.0 0.00 0.00 0.00 37 991.7
20260502194615 8 283 16.1 0.0 0.00 0.00 0.00 38 991.9
20260502193128 8 285 16.1 0.0 0.00 0.00 0.00 38 991.9
20260502191615 8 288 17.7 0.0 0.00 0.00 0.00 38 991.9
20260502190143 8 284 17.7 0.0 0.00 0.00 0.00 38 991.9
20260502183134 7 286 17.7 0.0 0.00 0.00 0.00 45 991.8
20260502181613 8 288 17.7 0.0 0.00 0.00 0.00 45 991.8
20260502180149 7 289 17.7 0.0 0.00 0.00 0.00 45 991.8
20260502170139 7 281 12.9 0.0 0.00 0.00 0.00 44 992.3
20260502163134 7 278 11.3 0.0 0.00 0.00 0.00 45 991.5
20260502161614 7 281 11.3 0.0 0.00 0.00 0.00 45 991.5
20260502160145 6 283 11.3 0.0 0.00 0.00 0.00 45 991.5
20260502151615 6 287 9.7 0.0 0.00 0.00 0.00 51 991.6
20260502150148 5 288 8.0 0.0 0.00 0.00 0.00 51 991.6
20260502130143 2 332 6.4 0.0 0.00 0.00 0.00 74 992.0
20260502123132 1 325 4.8 0.0 0.00 0.00 0.00 80 991.9
20260502121615 1 325 4.8 0.0 0.00 0.00 0.00 80 991.9
20260502120158 1 315 4.8 0.0 0.00 0.00 0.00 80 991.9
20260502114615 0 305 3.2 0.0 0.00 0.00 0.00 87 991.6
20260502113136 0 180 1.6 0.0 0.00 0.00 0.00 85 991.6
20260502111615 0 162 3.2 0.0 0.00 0.00 0.00 85 991.6
20260502110144 0 180 1.6 0.0 0.00 0.00 0.00 85 991.6
20260502104614 0 186 3.2 0.0 0.00 0.00 0.00 84 991.4
20260502103133 0 135 1.6 0.0 0.00 0.00 0.00 84 991.7
20260502101614 0 135 3.2 0.0 0.00 0.00 0.00 84 991.7
20260502100144 0 135 3.2 0.0 0.00 0.00 0.00 84 991.7
20260502090144 0 252 0.0 0.0 0.00 0.00 0.00 87 991.2
20260502070145 0 315 4.8 0.0 0.00 0.00 0.00 83 990.4
20260502064614 0 312 4.8 0.0 0.00 0.00 0.00 80 991.5
20260502063134 0 298 4.8 0.0 0.00 0.00 0.00 81 991.5
20260502061614 0 288 4.8 0.0 0.00 0.00 0.00 81 991.5
20260502060200 0 280 4.8 0.0 0.00 0.00 0.00 81 991.5
20260502054614 0 285 4.8 0.0 0.00 0.00 0.00 76 990.6
20260502053133 0 300 4.8 0.0 0.00 0.00 0.00 78 991.1
20260502051613 0 306 6.4 0.0 0.00 0.00 0.00 78 991.1
20260502050145 0 313 6.4 0.0 0.00 0.00 0.00 78 991.1